This demonstration page uses our WeatherBlox Daily Observations layout. Learn more.

Left ArrowRight Arrow

40.92945, -100.16068

Hourly Observations for November 16, 2015

Temp ( °F °C ) Dew Point ( °F °C ) Humidity (%) Winds ( mph kmh ) Pressure ( in mb ) Visibility ( mi km ) Precip ( " mm )
12:15 am 00:15 Cloudy 55 12.8 52 11 89 89 SSE 16 26 29.65 1004 10 16 N/A
12:35 am 00:35 Cloudy 55 12.8 52 11.1 90 90 SSE 16 26 29.65 1004 10 16 N/A
12:55 am 00:55 Cloudy 55 12.8 52 11.1 90 90 S 20 31 29.65 1004 10 16 N/A
1:15 am 01:15 Cloudy 55 12.8 52 11.2 90 90 S 20 31 29.59 1002 10 16 N/A
1:35 am 01:35 Cloudy 55 12.8 53 11.4 91 91 S 15 24 29.59 1002 10 16 N/A
1:55 am 01:55 Cloudy with Light Rain 55 12.8 53 11.5 92 92 S 14 22 29.59 1002 10 16 N/A
2:15 am 02:15 Cloudy 55 12.7 53 11.6 93 93 SSE 13 20 29.59 1002 7 11 N/A
2:35 am 02:35 Cloudy with Mist and Fog 55 12.7 53 11.7 94 94 SSE 9 15 29.59 1002 5 8 N/A
2:55 am 02:55 Cloudy with Light Rain 55 12.6 53 11.7 94 94 SSE 13 20 29.59 1002 7 11 N/A
3:15 am 03:15 Cloudy with Mist and Fog 55 12.6 53 11.8 95 95 SSE 14 22 29.56 1001 3 5 N/A
3:35 am 03:35 Cloudy with Mist and Fog 55 12.6 53 11.8 95 95 SSE 13 20 29.56 1001 3 4 N/A
3:55 am 03:55 Cloudy with Mist and Fog 55 12.6 53 11.9 96 96 SSE 14 22 29.56 1001 4 6 N/A
4:15 am 04:15 Cloudy with Mist and Fog 55 12.7 54 12 96 96 SSE 10 17 29.56 1001 2 3 N/A
4:35 am 04:35 Cloudy with Mist and Fog 55 12.6 54 12 96 96 SSE 17 28 29.56 1001 2 2 N/A
4:55 am 04:55 Cloudy with Mist and Fog 55 12.6 54 12 96 96 S 16 26 29.56 1001 1 2 N/A
5:15 am 05:15 Cloudy with Mist and Fog 55 12.6 54 12 96 96 SSE 10 17 29.56 1001 2 2 N/A
5:35 am 05:35 Cloudy with Mist and Fog 55 12.5 54 12 97 97 S 13 20 29.56 1001 2 3 N/A
5:55 am 05:55 Cloudy with Mist and Fog 54 12.3 53 11.8 97 97 S 13 20 29.59 1002 2 2 N/A
6:15 am 06:15 Cloudy with Mist and Fog 53 11.8 52 11.3 97 97 SSE 13 20 29.56 1001 1 1 N/A
6:35 am 06:35 Cloudy with Mist and Fog 53 11.8 52 11.3 97 97 SSE 10 17 29.56 1001 1 2 N/A
6:55 am 06:55 Cloudy with Mist and Fog 53 11.7 52 11.2 97 97 SSE 12 19 29.56 1001 1 1 N/A
7:15 am 07:15 Cloudy with Mist and Fog 53 11.7 52 11.2 97 97 SE 10 17 29.56 1001 1 2 N/A
7:35 am 07:35 Cloudy with Mist and Fog 53 11.8 52 11.3 97 97 SSE 12 19 29.56 1001 1 2 N/A
7:55 am 07:55 Cloudy with Mist and Fog 54 12 53 11.5 97 97 SSE 10 17 29.56 1001 3 4 N/A
8:15 am 08:15 Cloudy with Mist and Fog 54 12.1 53 11.6 97 97 SSE 10 17 29.56 1001 4 6 N/A
8:35 am 08:35 Cloudy with Mist and Fog 54 12.3 53 11.8 97 97 SSE 12 19 29.56 1001 5 8 N/A
8:55 am 08:55 Cloudy 55 12.5 54 12 97 97 SSE 12 19 29.53 1000 7 11 N/A
9:15 am 09:15 Cloudy 55 12.7 54 12.1 96 96 SSE 13 20 29.53 1000 10 16 N/A
9:35 am 09:35 Cloudy 55 12.8 54 12 95 95 S 14 22 29.53 1000 10 16 N/A
9:55 am 09:55 Cloudy 56 13.3 53 11.5 89 89 S 18 30 29.53 1000 10 16 N/A
10:15 am 10:15 Mostly Cloudy 57 13.8 51 10.7 82 82 S 16 26 29.53 1000 10 16 N/A
10:35 am 10:35 Partly Cloudy 58 14.4 52 11 80 80 SSE 15 24 29.53 1000 10 16 N/A
10:55 am 10:55 Partly Cloudy 59 14.8 52 11 78 78 SSE 15 24 29.50 999 10 16 N/A
11:15 am 11:15 Partly Cloudy 59 15 52 10.9 77 77 SSE 20 31 29.50 999 10 16 N/A
11:35 am 11:35 Sunny 60 15.6 53 11.4 76 76 S 17 28 29.47 998 10 16 N/A
11:55 am 11:55 Partly Cloudy 61 16.1 52 11.3 73 73 S 15 24 29.44 997 10 16 N/A
12:15 pm 12:15 Sunny 62 16.5 52 11 70 70 S 17 28 29.44 997 10 16 N/A
12:35 pm 12:35 Sunny 63 17.3 53 11.4 68 68 SSE 17 28 29.44 997 10 16 N/A
12:55 pm 12:55 Sunny 64 17.8 53 11.4 66 66 SSE 20 31 29.41 996 10 16 N/A
1:15 pm 13:15 Sunny 66 18.7 52 11 61 61 SSE 20 31 29.38 995 10 16 N/A
1:35 pm 13:35 Sunny 67 19.4 50 9.9 54 54 S 23 37 29.38 995 10 16 N/A
1:55 pm 13:55 Sunny 68 19.8 50 10.2 54 54 S 23 37 29.35 994 10 16 N/A
2:15 pm 14:15 Sunny 67 19.7 50 9.8 53 53 S 17 28 29.35 994 10 16 N/A
2:35 pm 14:35 Sunny 68 19.8 51 10.8 56 56 S 22 35 29.35 994 10 16 N/A
2:55 pm 14:55 Partly Cloudy 67 19.7 52 11.1 58 58 S 21 33 29.35 994 10 16 N/A
3:15 pm 15:15 Mostly Cloudy 67 19.3 53 11.7 62 62 SSE 17 28 29.35 994 10 16 N/A
3:35 pm 15:35 Mostly Cloudy 67 19.7 54 12.4 63 63 SSE 14 22 29.35 994 10 16 N/A
3:55 pm 15:55 Partly Cloudy 66 18.8 54 12.1 65 65 SE 12 19 29.35 994 10 16 N/A
4:15 pm 16:15 Mostly Cloudy 66 19.1 55 12.6 66 66 ESE 10 17 29.35 994 10 16 N/A
4:35 pm 16:35 Mostly Cloudy 66 18.9 55 12.6 67 67 ESE 10 17 29.32 993 10 16 N/A
4:55 pm 16:55 Partly Cloudy 65 18.4 55 12.5 69 69 SE 9 15 29.32 993 10 16 N/A
5:15 pm 17:15 Mostly Cloudy 64 18 54 12.1 69 69 SE 12 19 29.32 993 10 16 N/A
5:35 pm 17:35 Partly Cloudy 65 18.5 54 12.1 66 66 SE 14 22 29.32 993 10 16 N/A
5:55 pm 17:55 Mostly Cloudy 64 18 54 12.2 69 69 ESE 13 20 29.32 993 10 16 N/A
6:15 pm 18:15 Mostly Cloudy with Nearby Thunderstorms 62 16.7 55 12.9 78 78 SE 18 30 29.35 994 10 16 N/A
6:35 pm 18:35 Mostly Cloudy 62 16.8 56 13.6 82 82 SE 17 28 29.35 994 10 16 0.01 0.25
6:55 pm 18:55 Mostly Cloudy 62 16.5 57 14.1 86 86 SSW 12 19 29.38 995 10 16 0.01 0.25
7:15 pm 19:15 Cloudy 59 15.2 54 12.2 82 82 S 3 6 29.38 995 10 16 N/A
7:35 pm 19:35 Cloudy with Thunderstorms 57 13.8 51 10.6 81 81 W 9 15 29.44 997 10 16 0.01 0.25
7:55 pm 19:55 Cloudy with Strong Thunderstorms 53 11.5 50 9.9 90 90 SSW 5 7 29.44 997 3 5 0.30 7.62
8:15 pm 20:15 Cloudy with Thunderstorms 53 11.8 51 10.6 92 92 S 13 20 29.41 996 7 11 0.08 2.03
8:35 pm 20:35 Cloudy with Nearby Thunderstorms 53 11.5 51 10.5 94 94 SE 5 7 29.41 996 10 16 0.11 2.79
8:55 pm 20:55 Cloudy with Nearby Thunderstorms 53 11.5 51 10.3 92 92 SE 8 13 29.47 998 7 11 0.17 4.32
9:15 pm 21:15 Cloudy with Rain 53 11.5 51 10.5 94 94 S 9 15 29.47 998 7 11 0.07 1.78
9:35 pm 21:35 Cloudy with Rain 53 11.5 51 10.3 92 92 N N/A 29.44 997 4 6 0.15 3.81
9:55 pm 21:55 Cloudy 53 11.5 51 10.3 92 92 WSW 3 6 29.44 997 10 16 0.16 4.06
10:15 pm 22:15 Cloudy with Rain 53 11.8 51 10.4 91 91 S 16 26 29.50 999 10 16 0.04 1.02
10:35 pm 22:35 Cloudy with Thunderstorms 54 12 51 10.5 91 91 SE 13 20 29.47 998 7 11 0.11 2.79
10:55 pm 22:55 Cloudy 53 11.7 51 10.5 92 92 ESE 20 31 29.44 997 10 16 0.14 3.56
11:15 pm 23:15 Cloudy 53 11.8 51 10.3 91 91 ESE 7 11 29.41 996 10 16 0.01 0.25
11:35 pm 23:35 Cloudy with Light Rain 55 12.8 49 9.7 82 82 SE 18 30 29.38 995 10 16 0.01 0.25
11:55 pm 23:55 Cloudy with Light Rain 54 12.3 49 9.5 83 83 SE 17 28 29.35 994 10 16 0.01 0.25

Powered by AerisWeather